Year,Month,Day,Hour,Minute,Value (Times are PST for temperature in C)
2014,08,22,00,00,13.40
2014,08,22,00,01,13.40
2014,08,22,00,02,13.40
2014,08,22,00,03,13.40
2014,08,22,00,04,13.40
2014,08,22,00,05,13.40
2014,08,22,00,06,13.30
2014,08,22,00,07,13.30
2014,08,22,00,08,13.30
2014,08,22,00,09,13.30
2014,08,22,00,10,13.30
2014,08,22,00,11,13.30
2014,08,22,00,12,13.30
2014,08,22,00,13,13.30
2014,08,22,00,14,13.30
2014,08,22,00,15,13.20
2014,08,22,00,16,13.20
2014,08,22,00,17,13.20
2014,08,22,00,18,13.20
2014,08,22,00,19,13.20
2014,08,22,00,20,13.20
2014,08,22,00,21,13.20
2014,08,22,00,22,13.30
2014,08,22,00,23,13.20
2014,08,22,00,24,13.30
2014,08,22,00,25,13.20
2014,08,22,00,26,13.20
2014,08,22,00,27,13.30
2014,08,22,00,28,13.20
2014,08,22,00,29,13.20
2014,08,22,00,30,13.20
2014,08,22,00,31,13.20
2014,08,22,00,32,13.20
2014,08,22,00,33,13.20
2014,08,22,00,34,13.20
2014,08,22,00,35,13.30
2014,08,22,00,36,13.30
2014,08,22,00,37,13.20
2014,08,22,00,38,13.30
2014,08,22,00,39,13.20
2014,08,22,00,40,13.20
2014,08,22,00,41,13.20
2014,08,22,00,42,13.20
2014,08,22,00,43,13.30
2014,08,22,00,44,13.30
2014,08,22,00,45,13.30
2014,08,22,00,46,13.30
2014,08,22,00,47,13.30
2014,08,22,00,48,13.30
2014,08,22,00,49,13.30
2014,08,22,00,50,13.30
2014,08,22,00,51,13.30
2014,08,22,00,52,13.30
2014,08,22,00,53,13.30
2014,08,22,00,54,13.30
2014,08,22,00,55,13.30
2014,08,22,00,56,13.30
2014,08,22,00,57,13.30
2014,08,22,00,58,13.40
2014,08,22,00,59,13.40
2014,08,22,01,00,13.40
2014,08,22,01,01,13.40
2014,08,22,01,02,13.40
2014,08,22,01,03,13.40
2014,08,22,01,04,13.40
2014,08,22,01,05,13.40
2014,08,22,01,06,13.40
2014,08,22,01,07,13.40
2014,08,22,01,08,13.40
2014,08,22,01,09,13.50
2014,08,22,01,10,13.50
2014,08,22,01,11,13.50
2014,08,22,01,12,13.50
2014,08,22,01,13,13.50
2014,08,22,01,14,13.60
2014,08,22,01,15,13.60
2014,08,22,01,16,13.60
2014,08,22,01,17,13.60
2014,08,22,01,18,13.60
2014,08,22,01,19,13.60
2014,08,22,01,20,13.60
2014,08,22,01,21,13.60
2014,08,22,01,22,13.60
2014,08,22,01,23,13.50
2014,08,22,01,24,13.50
2014,08,22,01,25,13.50
2014,08,22,01,26,13.50
2014,08,22,01,27,13.50
2014,08,22,01,28,13.50
2014,08,22,01,29,13.50
2014,08,22,01,30,13.50
2014,08,22,01,31,13.50
2014,08,22,01,32,13.50
2014,08,22,01,33,13.40
2014,08,22,01,34,13.40
2014,08,22,01,35,13.40
2014,08,22,01,36,13.40
2014,08,22,01,37,13.40
2014,08,22,01,38,13.40
2014,08,22,01,39,13.40
2014,08,22,01,40,13.40
2014,08,22,01,41,13.40
2014,08,22,01,42,13.30
2014,08,22,01,43,13.30
2014,08,22,01,44,13.30
2014,08,22,01,45,13.30
2014,08,22,01,46,13.30
2014,08,22,01,47,13.20
2014,08,22,01,48,13.20
2014,08,22,01,49,13.20
2014,08,22,01,50,13.20
2014,08,22,01,51,13.10
2014,08,22,01,52,13.10
2014,08,22,01,53,13.10
2014,08,22,01,54,13.10
2014,08,22,01,55,13.10
2014,08,22,01,56,13.10
2014,08,22,01,57,13.10
2014,08,22,01,58,13.10
2014,08,22,01,59,13.10
2014,08,22,02,00,13.10
2014,08,22,02,01,13.10
2014,08,22,02,02,13.10
2014,08,22,02,03,13.10
2014,08,22,02,04,13.10
2014,08,22,02,05,13.10
2014,08,22,02,06,13.10
2014,08,22,02,07,13.20
2014,08,22,02,08,13.10
2014,08,22,02,09,13.10
2014,08,22,02,10,13.10
2014,08,22,02,11,13.10
2014,08,22,02,12,13.10
2014,08,22,02,13,13.10
2014,08,22,02,14,13.10
2014,08,22,02,15,13.10
2014,08,22,02,16,13.20
2014,08,22,02,17,13.20
2014,08,22,02,18,13.20
2014,08,22,02,19,13.20
2014,08,22,02,20,13.20
2014,08,22,02,21,13.20
2014,08,22,02,22,13.20
2014,08,22,02,23,13.20
2014,08,22,02,24,13.20
2014,08,22,02,25,13.20
2014,08,22,02,26,13.20
2014,08,22,02,27,13.20
2014,08,22,02,28,13.20
2014,08,22,02,29,13.20
2014,08,22,02,30,13.20
2014,08,22,02,31,13.20
2014,08,22,02,32,13.20
2014,08,22,02,33,13.10
2014,08,22,02,34,13.10
2014,08,22,02,35,13.10
2014,08,22,02,36,13.10
2014,08,22,02,37,13.10
2014,08,22,02,38,13.10
2014,08,22,02,39,13.10
2014,08,22,02,40,13.10
2014,08,22,02,41,13.10
2014,08,22,02,42,13.10
2014,08,22,02,43,13.10
2014,08,22,02,44,13.10
2014,08,22,02,45,13.10
2014,08,22,02,46,13.00
2014,08,22,02,47,13.00
2014,08,22,02,48,13.00
2014,08,22,02,49,13.00
2014,08,22,02,50,13.00
2014,08,22,02,51,12.90
2014,08,22,02,52,12.90
2014,08,22,02,53,12.90
2014,08,22,02,54,12.90
2014,08,22,02,55,12.90
2014,08,22,02,56,12.90
2014,08,22,02,57,12.90
2014,08,22,02,58,12.90
2014,08,22,02,59,12.90
2014,08,22,03,00,12.80
2014,08,22,03,01,12.80
2014,08,22,03,02,12.80
2014,08,22,03,06,12.80
2014,08,22,03,07,12.70
2014,08,22,03,08,12.70
2014,08,22,03,09,12.70
2014,08,22,03,10,12.70
2014,08,22,03,11,12.80
2014,08,22,03,12,12.80
2014,08,22,03,13,12.80
2014,08,22,03,14,12.80
2014,08,22,03,15,12.80
2014,08,22,03,16,12.80
2014,08,22,03,17,12.80
2014,08,22,03,18,12.80
2014,08,22,03,19,12.80
2014,08,22,03,20,12.80
2014,08,22,03,21,12.80
2014,08,22,03,22,12.80
2014,08,22,03,23,12.80
2014,08,22,03,24,12.80
2014,08,22,03,25,12.80
2014,08,22,03,26,12.80
2014,08,22,03,27,12.80
2014,08,22,03,28,12.80
2014,08,22,03,29,12.80
2014,08,22,03,30,12.80
2014,08,22,03,31,12.80
2014,08,22,03,32,12.80
2014,08,22,03,33,12.80
2014,08,22,03,34,12.80
2014,08,22,03,35,12.80
2014,08,22,03,36,12.80
2014,08,22,03,37,12.80
2014,08,22,03,38,12.80
2014,08,22,03,39,12.80
2014,08,22,03,40,12.80
2014,08,22,03,41,12.80
2014,08,22,03,42,12.80
2014,08,22,03,43,12.80
2014,08,22,03,44,12.80
2014,08,22,03,45,12.80
2014,08,22,03,46,12.80
2014,08,22,03,47,12.80
2014,08,22,03,48,12.80
2014,08,22,03,49,12.80
2014,08,22,03,50,12.80
2014,08,22,03,51,12.80
2014,08,22,03,52,12.80
2014,08,22,03,53,12.80
2014,08,22,03,54,12.80
2014,08,22,03,55,12.70
2014,08,22,03,56,12.70
2014,08,22,03,57,12.70
2014,08,22,03,58,12.70
2014,08,22,03,59,12.70
2014,08,22,04,00,12.70
2014,08,22,04,01,12.70
2014,08,22,04,02,12.70
2014,08,22,04,03,12.70
2014,08,22,04,04,12.60
2014,08,22,04,05,12.60
2014,08,22,04,06,12.60
2014,08,22,04,07,12.60
2014,08,22,04,08,12.60
2014,08,22,04,09,12.60
2014,08,22,04,10,12.60
2014,08,22,04,11,12.60
2014,08,22,04,12,12.60
2014,08,22,04,13,12.60
2014,08,22,04,14,12.60
2014,08,22,04,15,12.60
2014,08,22,04,16,12.50
2014,08,22,04,17,12.50
2014,08,22,04,18,12.50
2014,08,22,04,19,12.50
2014,08,22,04,20,12.50
2014,08,22,04,21,12.50
2014,08,22,04,22,12.40
2014,08,22,04,23,12.40
2014,08,22,04,24,12.40
2014,08,22,04,25,12.40
2014,08,22,04,26,12.40
2014,08,22,04,27,12.40
2014,08,22,04,28,12.40
2014,08,22,04,29,12.40
2014,08,22,04,30,12.40
2014,08,22,04,31,12.40
2014,08,22,04,32,12.30
2014,08,22,04,33,12.30
2014,08,22,04,34,12.30
2014,08,22,04,35,12.30
2014,08,22,04,36,12.30
2014,08,22,04,37,12.30
2014,08,22,04,38,12.30
2014,08,22,04,39,12.30
2014,08,22,04,40,12.30
2014,08,22,04,41,12.30
2014,08,22,04,42,12.30
2014,08,22,04,43,12.30
2014,08,22,04,44,12.30
2014,08,22,04,45,12.30
2014,08,22,04,46,12.30
2014,08,22,04,47,12.30
2014,08,22,04,48,12.30
2014,08,22,04,49,12.30
2014,08,22,04,50,12.30
2014,08,22,04,51,12.30
2014,08,22,04,52,12.30
2014,08,22,04,53,12.30
2014,08,22,04,54,12.30
2014,08,22,04,55,12.30
2014,08,22,04,56,12.30
2014,08,22,04,57,12.30
2014,08,22,04,58,12.30
2014,08,22,04,59,12.30
2014,08,22,05,00,12.30
2014,08,22,05,01,12.30
2014,08,22,05,02,12.30
2014,08,22,05,03,12.30
2014,08,22,05,04,12.30
2014,08,22,05,05,12.30
2014,08,22,05,06,12.30
2014,08,22,05,07,12.30
2014,08,22,05,08,12.30
2014,08,22,05,09,12.30
2014,08,22,05,10,12.30
2014,08,22,05,11,12.30
2014,08,22,05,12,12.30
2014,08,22,05,13,12.30
2014,08,22,05,14,12.30
2014,08,22,05,15,12.30
2014,08,22,05,16,12.30
2014,08,22,05,17,12.30
2014,08,22,05,18,12.30
2014,08,22,05,19,12.30
2014,08,22,05,20,12.30
2014,08,22,05,21,12.30
2014,08,22,05,22,12.30
2014,08,22,05,23,12.30
2014,08,22,05,24,12.30
2014,08,22,05,25,12.20
2014,08,22,05,26,12.20
2014,08,22,05,27,12.20
2014,08,22,05,28,12.20
2014,08,22,05,29,12.20
2014,08,22,05,30,12.20
2014,08,22,05,31,12.10
2014,08,22,05,32,12.10
2014,08,22,05,33,12.10
2014,08,22,05,34,12.10
2014,08,22,05,35,12.10
2014,08,22,05,36,12.10
2014,08,22,05,37,12.10
2014,08,22,05,38,12.00
2014,08,22,05,39,12.00
2014,08,22,05,40,12.00
2014,08,22,05,41,12.00
2014,08,22,05,42,11.90
2014,08,22,05,43,11.90
2014,08,22,05,44,11.90
2014,08,22,05,45,11.90
2014,08,22,05,46,11.90
2014,08,22,05,47,11.90
2014,08,22,05,48,11.90
2014,08,22,05,49,11.90
2014,08,22,05,50,11.90
2014,08,22,05,51,11.90
2014,08,22,05,52,11.90
2014,08,22,05,53,11.90
2014,08,22,05,54,11.90
2014,08,22,05,55,11.90
2014,08,22,05,56,11.90
2014,08,22,05,57,11.90
2014,08,22,05,58,11.90
2014,08,22,05,59,11.90
2014,08,22,06,00,11.90
2014,08,22,06,01,11.90
2014,08,22,06,02,11.90
2014,08,22,06,03,11.90
2014,08,22,06,04,11.90
2014,08,22,06,05,11.90
2014,08,22,06,06,11.90
2014,08,22,06,07,11.80
2014,08,22,06,08,11.80
2014,08,22,06,09,11.80
2014,08,22,06,10,11.80
2014,08,22,06,11,11.80
2014,08,22,06,12,11.80
2014,08,22,06,13,11.80
2014,08,22,06,14,11.80
2014,08,22,06,15,11.80
2014,08,22,06,16,11.80
2014,08,22,06,17,11.80
2014,08,22,06,18,11.90
2014,08,22,06,19,11.90
2014,08,22,06,20,11.90
2014,08,22,06,21,11.90
2014,08,22,06,22,11.90
2014,08,22,06,23,11.90
2014,08,22,06,24,11.90
2014,08,22,06,25,11.90
2014,08,22,06,26,11.90
2014,08,22,06,27,11.90
2014,08,22,06,28,11.90
2014,08,22,06,29,11.90
2014,08,22,06,30,11.90
2014,08,22,06,31,11.90
2014,08,22,06,32,11.90
2014,08,22,06,33,11.90
2014,08,22,06,34,11.90
2014,08,22,06,35,11.90
2014,08,22,06,36,11.90
2014,08,22,06,37,11.90
2014,08,22,06,38,11.90
2014,08,22,06,39,12.00
2014,08,22,06,40,12.00
2014,08,22,06,41,12.00
2014,08,22,06,42,12.00
2014,08,22,06,43,12.00
2014,08,22,06,44,12.00
2014,08,22,06,45,12.10
2014,08,22,06,46,12.10
2014,08,22,06,47,12.10
2014,08,22,06,48,12.10
2014,08,22,06,49,12.10
2014,08,22,06,50,12.20
2014,08,22,06,51,12.20
2014,08,22,06,52,12.20
2014,08,22,06,53,12.20
2014,08,22,06,54,12.30
2014,08,22,06,55,12.30
2014,08,22,06,56,12.30
2014,08,22,06,57,12.30
2014,08,22,06,58,12.30
2014,08,22,06,59,12.40
2014,08,22,07,00,12.40
2014,08,22,07,01,12.40
2014,08,22,07,02,12.40
2014,08,22,07,03,12.40
2014,08,22,07,04,12.50
2014,08,22,07,05,12.50
2014,08,22,07,06,12.50
2014,08,22,07,07,12.50
2014,08,22,07,08,12.50
2014,08,22,07,09,12.60
2014,08,22,07,10,12.60
2014,08,22,07,11,12.60
2014,08,22,07,12,12.60
2014,08,22,07,13,12.70
2014,08,22,07,14,12.70
2014,08,22,07,15,12.70
2014,08,22,07,16,12.70
2014,08,22,07,17,12.70
2014,08,22,07,18,12.80
2014,08,22,07,19,12.80
2014,08,22,07,20,12.80
2014,08,22,07,21,12.80
2014,08,22,07,22,12.80
2014,08,22,07,23,12.90
2014,08,22,07,24,12.90
2014,08,22,07,25,13.00
2014,08,22,07,26,13.00
2014,08,22,07,27,13.00
2014,08,22,07,28,13.10
2014,08,22,07,29,13.10
2014,08,22,07,30,13.20
2014,08,22,07,31,13.20
2014,08,22,07,32,13.20
2014,08,22,07,33,13.30
2014,08,22,07,34,13.30
2014,08,22,07,35,13.30
2014,08,22,07,36,13.30
2014,08,22,07,37,13.40
2014,08,22,07,38,13.40
2014,08,22,07,39,13.40
2014,08,22,07,40,13.50
2014,08,22,07,41,13.50
2014,08,22,07,42,13.50
2014,08,22,07,43,13.60
2014,08,22,07,44,13.60
2014,08,22,07,45,13.60
2014,08,22,07,46,13.60
2014,08,22,07,47,13.70
2014,08,22,07,48,13.70
2014,08,22,07,49,13.80
2014,08,22,07,50,13.80
2014,08,22,07,51,13.90
2014,08,22,07,52,13.90
2014,08,22,07,53,14.00
2014,08,22,07,54,14.10
2014,08,22,07,55,14.10
2014,08,22,07,56,14.20
2014,08,22,07,57,14.30
2014,08,22,07,58,14.30
2014,08,22,07,59,14.40
2014,08,22,08,00,14.50
2014,08,22,08,01,14.50
2014,08,22,08,02,14.60
2014,08,22,08,03,14.60
2014,08,22,08,04,14.60
2014,08,22,08,05,14.70
2014,08,22,08,06,14.70
2014,08,22,08,07,14.70
2014,08,22,08,08,14.70
2014,08,22,08,09,14.70
2014,08,22,08,10,14.70
2014,08,22,08,11,14.70
2014,08,22,08,12,14.70
2014,08,22,08,13,14.80
2014,08,22,08,14,14.70
2014,08,22,08,15,14.80
2014,08,22,08,16,14.80
2014,08,22,08,17,14.80
2014,08,22,08,18,14.80
2014,08,22,08,19,14.80
2014,08,22,08,20,14.80
2014,08,22,08,21,14.80
2014,08,22,08,22,14.90
2014,08,22,08,23,14.90
2014,08,22,08,24,14.90
2014,08,22,08,25,15.00
2014,08,22,08,26,15.00
2014,08,22,08,27,15.00
2014,08,22,08,28,15.00
2014,08,22,08,29,15.10
2014,08,22,08,30,15.10
2014,08,22,08,31,15.10
2014,08,22,08,32,15.10
2014,08,22,08,33,15.10
2014,08,22,08,34,15.10
2014,08,22,08,35,15.20
2014,08,22,08,36,15.20
2014,08,22,08,37,15.20
2014,08,22,08,38,15.20
2014,08,22,08,39,15.30
2014,08,22,08,40,15.30
2014,08,22,08,41,15.30
2014,08,22,08,42,15.40
2014,08,22,08,43,15.40
2014,08,22,08,44,15.40
2014,08,22,08,45,15.50
2014,08,22,08,46,15.50
2014,08,22,08,47,15.60
2014,08,22,08,48,15.60
2014,08,22,08,49,15.60
2014,08,22,08,50,15.60
2014,08,22,08,51,15.60
2014,08,22,08,52,15.70
2014,08,22,08,53,15.70
2014,08,22,08,54,15.80
2014,08,22,08,55,15.80
2014,08,22,08,56,15.90
2014,08,22,08,57,15.90
2014,08,22,08,58,16.00
2014,08,22,08,59,16.00
2014,08,22,09,00,16.10
2014,08,22,09,01,16.10
2014,08,22,09,02,16.10
2014,08,22,09,03,16.20
2014,08,22,09,04,16.20
2014,08,22,09,05,16.30
2014,08,22,09,06,16.30
2014,08,22,09,07,16.30
2014,08,22,09,08,16.40
2014,08,22,09,09,16.40
2014,08,22,09,10,16.50
2014,08,22,09,11,16.60
2014,08,22,09,12,16.70
2014,08,22,09,13,16.80
2014,08,22,09,14,16.90
2014,08,22,09,15,17.00
2014,08,22,09,16,17.00
2014,08,22,09,17,17.10
2014,08,22,09,18,17.20
2014,08,22,09,19,17.30
2014,08,22,09,20,17.40
2014,08,22,09,21,17.40
2014,08,22,09,22,17.40
2014,08,22,09,23,17.50
2014,08,22,09,24,17.50
2014,08,22,09,25,17.50
2014,08,22,09,26,17.60
2014,08,22,09,27,17.50
2014,08,22,09,28,17.50
2014,08,22,09,29,17.50
2014,08,22,09,30,17.50
2014,08,22,09,31,17.40
2014,08,22,09,32,17.40
2014,08,22,09,33,17.40
2014,08,22,09,34,17.40
2014,08,22,09,35,17.40
2014,08,22,09,36,17.40
2014,08,22,09,37,17.50
2014,08,22,09,38,17.50
2014,08,22,09,39,17.60
2014,08,22,09,40,17.60
2014,08,22,09,41,17.70
2014,08,22,09,42,17.70
2014,08,22,09,43,17.70
2014,08,22,09,44,17.80
2014,08,22,09,45,17.80
2014,08,22,09,46,17.80
2014,08,22,09,47,17.90
2014,08,22,09,48,17.90
2014,08,22,09,49,18.00
2014,08,22,09,50,18.00
2014,08,22,09,51,18.10
2014,08,22,09,52,18.10
2014,08,22,09,53,18.20
2014,08,22,09,54,18.30
2014,08,22,09,55,18.30
2014,08,22,09,56,18.40
2014,08,22,09,57,18.40
2014,08,22,09,58,18.50
2014,08,22,09,59,18.60
2014,08,22,10,00,18.60
2014,08,22,10,01,18.70
2014,08,22,10,02,18.70
2014,08,22,10,03,18.60
2014,08,22,10,04,18.50
2014,08,22,10,05,18.40
2014,08,22,10,06,18.40
2014,08,22,10,07,18.30
2014,08,22,10,08,18.30
2014,08,22,10,09,18.30
2014,08,22,10,10,18.30
2014,08,22,10,11,18.30
2014,08,22,10,12,18.30
2014,08,22,10,13,18.30
2014,08,22,10,14,18.30
2014,08,22,10,15,18.30
2014,08,22,10,16,18.30
2014,08,22,10,17,18.40
2014,08,22,10,18,18.40
2014,08,22,10,19,18.50
2014,08,22,10,20,18.60
2014,08,22,10,21,18.60
2014,08,22,10,22,18.60
2014,08,22,10,23,18.60
2014,08,22,10,24,18.50
2014,08,22,10,25,18.50
2014,08,22,10,26,18.50
2014,08,22,10,27,18.50
2014,08,22,10,28,18.60
2014,08,22,10,29,18.60
2014,08,22,10,30,18.60
2014,08,22,10,31,18.60
2014,08,22,10,32,18.70
2014,08,22,10,33,18.80
2014,08,22,10,34,18.80
2014,08,22,10,35,18.90
2014,08,22,10,36,18.90
2014,08,22,10,37,19.00
2014,08,22,10,38,19.00
2014,08,22,10,39,19.10
2014,08,22,10,40,19.10
2014,08,22,10,41,19.10
2014,08,22,10,42,19.10
2014,08,22,10,43,19.10
2014,08,22,10,44,19.00
2014,08,22,10,45,18.80
2014,08,22,10,46,18.70
2014,08,22,10,47,18.60
2014,08,22,10,48,18.50
2014,08,22,10,49,18.50
2014,08,22,10,50,18.50
2014,08,22,10,51,18.50
2014,08,22,10,52,18.50
2014,08,22,10,53,18.50
2014,08,22,10,54,18.40
2014,08,22,10,55,18.40
2014,08,22,10,56,18.40
2014,08,22,10,57,18.30
2014,08,22,10,58,18.30
2014,08,22,10,59,18.30
2014,08,22,11,00,18.30
2014,08,22,11,01,18.30
2014,08,22,11,02,18.30
2014,08,22,11,03,18.30
2014,08,22,11,04,18.30
2014,08,22,11,05,18.40
2014,08,22,11,06,18.50
2014,08,22,11,07,18.60
2014,08,22,11,08,18.70
2014,08,22,11,09,18.70
2014,08,22,11,10,18.80
2014,08,22,11,11,18.80
2014,08,22,11,12,18.70
2014,08,22,11,13,18.60
2014,08,22,11,14,18.60
2014,08,22,11,15,18.60
2014,08,22,11,16,18.60
2014,08,22,11,17,18.60
2014,08,22,11,18,18.70
2014,08,22,11,19,18.80
2014,08,22,11,20,18.80
2014,08,22,11,21,18.80
2014,08,22,11,22,18.80
2014,08,22,11,23,18.80
2014,08,22,11,24,18.80
2014,08,22,11,25,18.90
2014,08,22,11,26,18.90
2014,08,22,11,27,19.00
2014,08,22,11,28,19.00
2014,08,22,11,29,19.10
2014,08,22,11,30,19.10
2014,08,22,11,31,19.10
2014,08,22,11,32,19.20
2014,08,22,11,33,19.20
2014,08,22,11,34,19.20
2014,08,22,11,35,19.20
2014,08,22,11,36,19.20
2014,08,22,11,37,19.20
2014,08,22,11,38,19.20
2014,08,22,11,39,19.20
2014,08,22,11,40,19.20
2014,08,22,11,41,19.20
2014,08,22,11,42,19.20
2014,08,22,11,43,19.20
2014,08,22,11,44,19.20
2014,08,22,11,45,19.10
2014,08,22,11,46,19.00
2014,08,22,11,47,18.90
2014,08,22,11,48,18.90
2014,08,22,11,49,18.80
2014,08,22,11,50,18.80
2014,08,22,11,51,18.80
2014,08,22,11,52,18.70
2014,08,22,11,53,18.60
2014,08,22,11,54,18.60
2014,08,22,11,55,18.60
2014,08,22,11,56,18.60
2014,08,22,11,57,18.60
2014,08,22,11,58,18.50
2014,08,22,11,59,18.50
2014,08,22,12,00,18.50
2014,08,22,12,01,18.50
2014,08,22,12,02,18.60
2014,08,22,12,03,18.70
2014,08,22,12,04,18.70
2014,08,22,12,05,18.80
2014,08,22,12,06,18.80
2014,08,22,12,07,18.90
2014,08,22,12,08,19.00
2014,08,22,12,09,19.10
2014,08,22,12,10,19.10
2014,08,22,12,11,19.20
2014,08,22,12,12,19.20
2014,08,22,12,13,19.30
2014,08,22,12,14,19.40
2014,08,22,12,15,19.40
2014,08,22,12,16,19.40
2014,08,22,12,17,19.40
2014,08,22,12,18,19.30
2014,08,22,12,19,19.30
2014,08,22,12,20,19.30
2014,08,22,12,21,19.20
2014,08,22,12,22,19.20
2014,08,22,12,23,19.20
2014,08,22,12,24,19.20
2014,08,22,12,25,19.20
2014,08,22,12,26,19.30
2014,08,22,12,27,19.40
2014,08,22,12,28,19.40
2014,08,22,12,29,19.50
2014,08,22,12,30,19.60
2014,08,22,12,31,19.60
2014,08,22,12,32,19.70
2014,08,22,12,33,19.70
2014,08,22,12,34,19.70
2014,08,22,12,35,19.70
2014,08,22,12,36,19.80
2014,08,22,12,37,19.80
2014,08,22,12,38,19.90
2014,08,22,12,39,19.90
2014,08,22,12,40,20.00
2014,08,22,12,41,20.00
2014,08,22,12,42,20.00
2014,08,22,12,43,20.00
2014,08,22,12,44,20.10
2014,08,22,12,45,20.10
2014,08,22,12,46,20.10
2014,08,22,12,47,20.00
2014,08,22,12,48,19.90
2014,08,22,12,49,19.80
2014,08,22,12,50,19.70
2014,08,22,12,51,19.70
2014,08,22,12,52,19.70
2014,08,22,12,53,19.70
2014,08,22,12,54,19.70
2014,08,22,12,55,19.70
2014,08,22,12,56,19.70
2014,08,22,12,57,19.60
2014,08,22,12,58,19.60
2014,08,22,12,59,19.60
2014,08,22,13,00,19.50
2014,08,22,13,01,19.50
2014,08,22,13,02,19.40
2014,08,22,13,03,19.30
2014,08,22,13,04,19.40
2014,08,22,13,05,19.40
2014,08,22,13,06,19.40
2014,08,22,13,07,19.50
2014,08,22,13,08,19.50
2014,08,22,13,09,19.60
2014,08,22,13,10,19.60
2014,08,22,13,11,19.60
2014,08,22,13,12,19.60
2014,08,22,13,13,19.60
2014,08,22,13,14,19.60
2014,08,22,13,15,19.60
2014,08,22,13,16,19.60
2014,08,22,13,17,19.60
2014,08,22,13,18,19.70
2014,08,22,13,19,19.70
2014,08,22,13,20,19.70
2014,08,22,13,21,19.70
2014,08,22,13,22,19.70
2014,08,22,13,23,19.80
2014,08,22,13,24,19.80
2014,08,22,13,25,19.80
2014,08,22,13,26,19.80
2014,08,22,13,27,19.80
2014,08,22,13,28,19.80
2014,08,22,13,29,19.80
2014,08,22,13,30,19.80
2014,08,22,13,31,19.90
2014,08,22,13,32,19.90
2014,08,22,13,33,20.00
2014,08,22,13,34,20.10
2014,08,22,13,35,20.10
2014,08,22,13,36,20.10
2014,08,22,13,37,20.10
2014,08,22,13,38,20.20
2014,08,22,13,39,20.20
2014,08,22,13,40,20.20
2014,08,22,13,41,20.30
2014,08,22,13,42,20.40
2014,08,22,13,43,20.40
2014,08,22,13,44,20.50
2014,08,22,13,45,20.60
2014,08,22,13,46,20.70
2014,08,22,13,47,20.80
2014,08,22,13,48,20.80
2014,08,22,13,49,20.80
2014,08,22,13,50,20.90
2014,08,22,13,51,20.90
2014,08,22,13,52,21.00
2014,08,22,13,53,21.00
2014,08,22,13,54,21.10
2014,08,22,13,55,21.10
2014,08,22,13,56,21.10
2014,08,22,13,57,21.00
2014,08,22,13,58,21.00
2014,08,22,13,59,21.00
2014,08,22,14,00,20.90
2014,08,22,14,01,20.90
2014,08,22,14,02,20.90
2014,08,22,14,03,20.90
2014,08,22,14,04,20.90
2014,08,22,14,05,20.90
2014,08,22,14,06,20.90
2014,08,22,14,07,21.00
2014,08,22,14,08,20.90
2014,08,22,14,09,20.90
2014,08,22,14,10,20.80
2014,08,22,14,11,20.70
2014,08,22,14,12,20.70
2014,08,22,14,13,20.60
2014,08,22,14,14,20.60
2014,08,22,14,15,20.60
2014,08,22,14,16,20.60
2014,08,22,14,17,20.70
2014,08,22,14,18,20.70
2014,08,22,14,19,20.70
2014,08,22,14,20,20.70
2014,08,22,14,21,20.80
2014,08,22,14,22,20.80
2014,08,22,14,23,20.90
2014,08,22,14,24,20.90
2014,08,22,14,25,20.90
2014,08,22,14,26,20.90
2014,08,22,14,27,20.80
2014,08,22,14,28,20.70
2014,08,22,14,29,20.60
2014,08,22,14,30,20.50
2014,08,22,14,31,20.40
2014,08,22,14,32,20.40
2014,08,22,14,33,20.30
2014,08,22,14,34,20.20
2014,08,22,14,35,20.20
2014,08,22,14,36,20.10
2014,08,22,14,37,20.00
2014,08,22,14,38,19.90
2014,08,22,14,39,19.90
2014,08,22,14,40,19.90
2014,08,22,14,41,19.90
2014,08,22,14,42,19.90
2014,08,22,14,43,19.90
2014,08,22,14,44,20.00
2014,08,22,14,45,20.00
2014,08,22,14,46,20.00
2014,08,22,14,47,20.00
2014,08,22,14,48,20.00
2014,08,22,14,49,20.00
2014,08,22,14,50,19.90
2014,08,22,14,51,19.90
2014,08,22,14,52,19.90
2014,08,22,14,53,19.90
2014,08,22,14,54,20.00
2014,08,22,14,55,20.00
2014,08,22,14,56,20.10
2014,08,22,14,57,20.10
2014,08,22,14,58,20.00
2014,08,22,14,59,20.00
2014,08,22,15,00,20.00
2014,08,22,15,01,20.00
2014,08,22,15,02,20.00
2014,08,22,15,03,20.00
2014,08,22,15,04,20.00
2014,08,22,15,05,19.90
2014,08,22,15,06,19.90
2014,08,22,15,07,19.90
2014,08,22,15,08,19.80
2014,08,22,15,09,19.70
2014,08,22,15,10,19.60
2014,08,22,15,11,19.60
2014,08,22,15,12,19.50
2014,08,22,15,13,19.60
2014,08,22,15,14,19.60
2014,08,22,15,15,19.60
2014,08,22,15,16,19.60
2014,08,22,15,17,19.70
2014,08,22,15,18,19.80
2014,08,22,15,19,19.80
2014,08,22,15,20,19.90
2014,08,22,15,21,19.90
2014,08,22,15,22,19.90
2014,08,22,15,23,19.90
2014,08,22,15,24,19.90
2014,08,22,15,25,19.90
2014,08,22,15,26,19.80
2014,08,22,15,27,19.80
2014,08,22,15,28,19.80
2014,08,22,15,29,19.80
2014,08,22,15,30,19.70
2014,08,22,15,31,19.70
2014,08,22,15,32,19.70
2014,08,22,15,33,19.70
2014,08,22,15,34,19.70
2014,08,22,15,35,19.80
2014,08,22,15,36,19.90
2014,08,22,15,37,19.90
2014,08,22,15,38,20.00
2014,08,22,15,39,20.10
2014,08,22,15,40,20.10
2014,08,22,15,41,20.20
2014,08,22,15,42,20.20
2014,08,22,15,43,20.20
2014,08,22,15,44,20.20
2014,08,22,15,45,20.20
2014,08,22,15,46,20.20
2014,08,22,15,47,20.20
2014,08,22,15,48,20.10
2014,08,22,15,49,20.10
2014,08,22,15,50,20.10
2014,08,22,15,51,20.10
2014,08,22,15,52,20.10
2014,08,22,15,53,20.10
2014,08,22,15,54,20.20
2014,08,22,15,55,20.30
2014,08,22,15,56,20.40
2014,08,22,15,57,20.50
2014,08,22,15,58,20.60
2014,08,22,15,59,20.70
2014,08,22,16,00,20.70
2014,08,22,16,01,20.80
2014,08,22,16,02,20.90
2014,08,22,16,03,21.00
2014,08,22,16,04,21.20
2014,08,22,16,05,21.40
2014,08,22,16,06,21.60
2014,08,22,16,07,21.80
2014,08,22,16,08,21.90
2014,08,22,16,09,22.00
2014,08,22,16,10,22.20
2014,08,22,16,11,22.30
2014,08,22,16,12,22.50
2014,08,22,16,13,22.50
2014,08,22,16,14,22.60
2014,08,22,16,15,22.60
2014,08,22,16,16,22.60
2014,08,22,16,17,22.60
2014,08,22,16,18,22.70
2014,08,22,16,19,22.70
2014,08,22,16,20,22.70
2014,08,22,16,21,22.70
2014,08,22,16,22,22.70
2014,08,22,16,23,22.70
2014,08,22,16,24,22.70
2014,08,22,16,25,22.70
2014,08,22,16,26,22.80
2014,08,22,16,27,22.80
2014,08,22,16,28,22.90
2014,08,22,16,29,22.90
2014,08,22,16,30,22.90
2014,08,22,16,31,22.90
2014,08,22,16,32,22.90
2014,08,22,16,33,22.80
2014,08,22,16,34,22.90
2014,08,22,16,35,22.90
2014,08,22,16,36,22.90
2014,08,22,16,37,22.80
2014,08,22,16,38,22.70
2014,08,22,16,39,22.70
2014,08,22,16,40,22.70
2014,08,22,16,41,22.70
2014,08,22,16,42,22.70
2014,08,22,16,43,22.70
2014,08,22,16,44,22.70
2014,08,22,16,45,22.70
2014,08,22,16,46,22.70
2014,08,22,16,47,22.70
2014,08,22,16,48,22.80
2014,08,22,16,49,22.80
2014,08,22,16,50,22.80
2014,08,22,16,51,22.80
2014,08,22,16,52,22.80
2014,08,22,16,53,22.90
2014,08,22,16,54,22.90
2014,08,22,16,55,23.00
2014,08,22,16,56,23.10
2014,08,22,16,57,23.10
2014,08,22,16,58,23.20
2014,08,22,16,59,23.10
2014,08,22,17,00,23.10
2014,08,22,17,01,23.10
2014,08,22,17,02,23.10
2014,08,22,17,03,23.10
2014,08,22,17,04,23.10
2014,08,22,17,05,23.10
2014,08,22,17,06,23.10
2014,08,22,17,07,23.10
2014,08,22,17,08,23.10
2014,08,22,17,09,23.10
2014,08,22,17,10,23.10
2014,08,22,17,11,23.20
2014,08,22,17,12,23.20
2014,08,22,17,13,23.20
2014,08,22,17,14,23.20
2014,08,22,17,15,23.20
2014,08,22,17,16,23.20
2014,08,22,17,17,23.30
2014,08,22,17,18,23.30
2014,08,22,17,19,23.30
2014,08,22,17,20,23.40
2014,08,22,17,21,23.40
2014,08,22,17,22,23.40